Showing default

CROCUBE, 62394

Orbit data source: Space-Track

CROCUBE, 62394 is a Croatian payload satellite in LEO that was launched on Sat, 21 Dec 2024 UTC via an FALCON 9 launch vehicle from the Air Force Western Test Range (AFWTR). Payload-class satellites include a variety of spacecraft equipped with specific instruments for various scientific and technological missions. These include communications satellites like Starlink; space stations such as the ISS; scientific satellites like the Hubble; Earth observation satellites from companies like Planet Labs, Umbra, and HawkEye 360; GPS; miniature CubeSats for education and research; and military/defense satellites.

Loading next visibility...
Identifier
62394, 2024-247T
Orbit
LEO
Country
Flag of HRHR / HRV
Related business
Manufacturer
SpaceManic
Mission
Operational Amateur Technology
Bus & Motor
CUBESAT 1U, Unknown motor
Mass
1 kg wet, 1 kg dry
Launch date (UTC)
2024-12-21 (1 year ago)
Launch vehicle
FALCON 9
Launch site
Air Force Western Test Range (AFWTR)
Object type
Payload
Rocket body
Debris
Shape & HBR
Box, 0.1 m
Radar Cross Section
0.015 m², Small (<0.1 m²)

Expand to show TLE details & history
Last TLE update: 14 hours ago

TLE from 14 hours ago
0 CROCUBE
1 62394U 24247T   26036.67327425  .00048633  00000-0  12343-2 0  9995
2 62394  44.9735 275.5923 0002196 189.1855 170.8993 15.38988797 63029
Epoch: 2026-02-05T16:09Z
TLE epoch observation values (Epoch: 2026-02-05T16:09:30.895Z)
Latitude
0.00006°
Longitude
-102.6085°
Altitude
450.574 km
Speed
7.643 km/s
True Right ascension
18h 22m 22s
True Declination
0° 00' 00"
Sunlit
Object was in daylight at epoch
Visualization orbit readout
Latitude
Unknown
Longitude
Unknown
Altitude
Unknown
Speed
Unknown
Apparent Right ascension
Unknown
Apparent Declination
Unknown
Sunlit
N/A
Visualization observer readout
Local Sidereal Time
08:21:14
Azimuth
Unknown
Elevation
Unknown
Doppler factor
Unknown
Orbital elements
Apogee altitude
452.22 km
Perigee altitude
449.22 km
Semi-major axis
6,828.857 km
Eccentricity
0.00022
Inclination
44.9735°
RAAN
275.5923°
Arg. of periapsis
189.1855°
True anomaly
170.90328°
Mean anomaly
170.8993°
Eccentric anomaly
170.90129°
Mean motion
3.84611 °/min
Orbital period
93.6 mins
BSTAR
0.0012343
Loading maneuver chart data...
Computing Atmospheric mass density...
Loading historical data...
Loading historical data...
Loading historical data...
Loading historical data...
Loading historical data...
Loading historical data...
Loading historical data...

Documentation

Showing up to 5 results
|